Regional Weather Roundup
Issued by NWS

Home | Current Version | Previous Version | Graphics & Text | Print | Product List | Glossary On
Versions: 1 2 3 4 5 6 7 8 9 10 11 12 13 14 15 16 17 18 19 20 21 22 23 24 25 26 27 28 29 30 31 32 33 34 35 36 37 38 39 40 41 42 43 44 45 46 47 48 49 50
000
ASUS43 KLOT 022108
RWRIL

ILLINOIS REGIONAL WEATHER ROUNDUP
NATIONAL WEATHER SERVICE CHICAGO/ROMEOVILLE IL
400 PM CDT TUE JUN 02 2015

NOTE: "FAIR" INDICATES FEW OR NO CLOUDS BELOW 12,000 FEET WITH NO
SIGNIFICANT WEATHER AND/OR OBSTRUCTIONS TO VISIBILITY.

* THESE STATIONS ARE NOT UNDER NWS QUALITY CONTROL. THEY ALSO MAY NOT
  REPORT WEATHER SUCH AS PRECIPITATION OR FOG.

ILZ001-002-007-009-015-016-024-022200-
NORTHWEST ILLINOIS

CITY           SKY/WX    TMP DP  RH WIND       PRES   REMARKS
MOLINE         SUNNY     74  48  39 S9        30.05F
STERLING*      SUNNY     73  46  38 E5        30.08F
SAVANNA*       SUNNY     74  45  36 NW5       30.07F
$$

ILZ003-004-008-010-011-017-018-022200-
NORTH CENTRAL ILLINOIS

CITY           SKY/WX    TMP DP  RH WIND       PRES   REMARKS
ROCKFORD       MOSUNNY   74  45  35 S7        30.09F
FREEPORT*      SUNNY     71  47  43 S6        30.10F
ROCHELLE*      SUNNY     73  45  36 SE10      30.09S
DE KALB*       SUNNY     69  47  44 S3        30.09F
PERU*          SUNNY     73  44  35 S6        30.09S
$$

ILZ005-006-012>014-019>023-022200-
NORTHEAST ILLINOIS

CITY           SKY/WX    TMP DP  RH WIND       PRES   REMARKS
CHICAGO-OHARE  MOSUNNY   69  40  34 SE8       30.09F
CHICAGO-MIDWAY MOSUNNY   70  48  45 E7        30.10F
AURORA         SUNNY     73  46  38 E9        30.08F
LANSING*       SUNNY     69  47  46 NE10      30.10F
JOLIET*        SUNNY     74  48  40 SE8       30.09F
WAUKEGAN       SUNNY     63  45  51 SE6       30.11F
DUPAGE AIRPORT SUNNY     71  45  39 SE7       30.08F
KANKAKEE*      SUNNY     70  52  51 E9        30.09F
WHEELING       SUNNY     67  41  38 E8        30.12F
MORRIS*        SUNNY     73  44  36 SE9       30.07F
ROMEOVILLE*    SUNNY     73  44  35 SE9       30.09S
NORTHERLY ISL    N/A     61  50  67 MISG        N/A
$$

LMZ740>746-022200-
SOUTHERN LAKE MICHIGAN

STATION/POSITION SKY/WX   TEMP    WIND        PRES    VSBY  WAVE
                          AIR SEA DIR/SP/G                  HT/PER
                          (F)     (DEG/KT/KT) (MB)    (MI)  (FT/S)
SOUTHERN BUOY              48 39  310/  4/  4 1020.8F         0
HARRISON CRIB              56      40/  9/  9   N/A
BURNHAM HARBOR             61      10/  6/  8   N/A
CALUMET HARBOR             61      20/  7/ 10   N/A
BURNS HARBOR                       40/  9/ 10 1020.7F
MICHIGAN CITY              54      10/  9/ 10   N/A
MICHIGAN CITY 6N           54 56   40/  8/  8   N/A           1/ 3
ST. JOSEPH                 55 56   40/ 10/ 12   N/A           1
$$

ILZ025>027-034>036-040-047-049-050-058-095>099-022200-
WEST-CENTRAL ILLINOIS

CITY           SKY/WX    TMP DP  RH WIND       PRES   REMARKS
QUINCY         PTSUNNY   73  53  49 SE9       30.06F
GALESBURG*     SUNNY     72  52  48 E3        30.07F
MACOMB*        MOSUNNY   72  53  50 S7        30.09F
JACKSONVILLE*  SUNNY     73  53  49 SE7       30.06F
PITTSFIELD*    CLOUDY    72  55  56 E7        30.08S
$$

ILZ028>032-037-038-041>044-048-051>054-059>061-022200-
CENTRAL ILLINOIS

CITY           SKY/WX    TMP DP  RH WIND       PRES   REMARKS
PONTIAC        SUNNY     72  50  44 E7G16     30.09F
BLOOMINGTON    SUNNY     72  51  47 VRB3      30.09F
DECATUR        MOSUNNY   73  54  51 E8        30.07F
PEORIA         SUNNY     74  49  41 E8        30.07F
LACON*         SUNNY     72  47  40 SE6       30.07F
LINCOLN*       SUNNY     73  52  46 CALM      30.05F
SPRINGFIELD    SUNNY     74  54  49 CALM      30.06F
TAYLORVILLE    MOSUNNY   72  55  56 E3        30.07F
$$

ILZ033-039-045-046-055>057-062-063-022200-
EAST-CENTRAL ILLINOIS

CITY           SKY/WX    TMP DP  RH WIND       PRES   REMARKS
CHAMPAIGN      MOSUNNY   72  53  51 VRB5      30.07F
DANVILLE*      SUNNY     70  53  53 E5        30.05F
RANTOUL*       SUNNY     73  52  46 SE6       30.08F
MATTOON        PTSUNNY   72  56  57 VRB5      30.05F
PARIS*         SUNNY     73  55  53 NE3       30.07F
$$

ILZ079-100>102-022200-
SOUTHWEST ILLINOIS

CITY           SKY/WX    TMP DP  RH WIND       PRES   REMARKS
BELLEVILLE     PTSUNNY   68  58  70 E7        30.06F
CAHOKIA*       MOSUNNY   72  56  57 VRB5      30.06F
SPARTA*        CLOUDY    64  56  73 CALM      30.08F
$$

ILZ064>066-069>071-074>076-080>082-084>086-088>090-092>094-022200-
SOUTH-CENTRAL ILLINOIS

CITY           SKY/WX    TMP DP  RH WIND       PRES   REMARKS
CARBONDALE     CLOUDY    64  55  72 E5        30.07F
CAIRO*         CLOUDY    65  57  75 NE3       30.07S
EFFINGHAM*     PTSUNNY   70  53  54 E5        30.09S
MARION         CLOUDY    64  57  77 MISG      30.08F
MT. VERNON     CLOUDY    63  54  72 CALM      30.09F
CENTRALIA*     CLOUDY    73  53  49 CALM      30.08F
SALEM*         PTSUNNY   68  56  67 CALM      30.08F
METROPOLIS*      N/A     65  59  78 CALM      30.18S
$$

ILZ067-068-072-073-078-083-087-091-022200-
SOUTHEAST ILLINOIS

CITY           SKY/WX    TMP DP  RH WIND       PRES   REMARKS
LAWRENCEVILLE  CLOUDY    69  56  62 CALM      30.06F
FLORA*         SUNNY     64  55  72 CALM      30.09S
FAIRFIELD*     CLOUDY    64  55  73 CALM      30.08S
HARRISBURG*    CLOUDY    65  57  75 CALM      30.09S
ROBINSON*      MOSUNNY   73  56  56 NE6       30.07F
CARMI*         CLOUDY    64  52  63 CALM      30.07S
$$

ABBREVIATIONS USED IN REMARKS
   TC - TEMPERATURE IN CELSIUS
  WCI - WIND CHILL INDEX
   HX - HEAT INDEX
  VSB - VISIBILITY
$$



USA.gov is the U.S. government's official web portal to all federal, state and local government web resources and services.